[[{"header":{"parameterUnit":"m.s-1","parameterCategory":2,"la1":30.2991,"la2":30.254,"lo1":-89.0895,"lo2":-89.0444,"dy":0.0017,"dx":0.0017,"nx":28,"ny":28,"refTime":"2025-02-11T09:00:00:Z","depth":"0","parameterNumber":2,"parameterNumberName":"U-component_of_CURRENTS"},"data":[0,0,0,0,0,0,0,0,0,0,0,0,0,0,0,0,0,0,0,0,0,0,0,0,0,0,0,0,0,0,0,0,0,0,0,0,0,0,0,0,0,0,0,0,0,0,0,0,0,0,0,0,0,0,0,0,0,0,-0.2323,-0.2324,0,-0.24,-0.24,-0.2401,-0.2452,-0.2452,-0.2453,-0.2453,-0.2504,-0.2505,-0.2506,0,0,0,0,0,0,0,0,0,0,0,0,0,-0.2217,-0.2218,-0.2323,-0.2324,-0.2325,-0.24,-0.24,-0.2401,-0.2451,-0.2452,-0.2453,-0.2453,-0.2504,-0.2505,-0.2506,0,0,0,0,0,0,0,0,0,0,0,0,0,-0.2273,-0.2219,-0.2323,-0.2361,-0.2365,-0.2399,-0.24,-0.2401,-0.2451,-0.2452,-0.2453,-0.2454,-0.2503,-0.2505,-0.2506,-0.2498,0,0,-0.251,-0.2511,0,0,0,0,0,0,0,0,-0.227,-0.2276,-0.2354,-0.2358,-0.2363,-0.2419,-0.2382,-0.2433,-0.2451,-0.2416,-0.2453,-0.2454,-0.2474,-0.2478,-0.2488,-0.25,-0.2503,-0.251,-0.2511,-0.2511,-0.2512,0,0,0,0,0,0,0,-0.2266,-0.2273,-0.2351,-0.2355,-0.2361,-0.2373,-0.2382,-0.2392,-0.2438,-0.2419,-0.2424,-0.2436,-0.2476,-0.2486,-0.2489,-0.2503,-0.251,-0.2511,-0.2512,-0.2512,-0.2458,-0.2456,0,0,0,0,0,0,-0.226,-0.227,-0.2349,-0.2354,-0.232,-0.2375,-0.2384,-0.2398,-0.2438,-0.2446,-0.2435,-0.2438,-0.2484,-0.2488,-0.2491,-0.2472,-0.2511,-0.2513,-0.2513,-0.246,-0.2458,-0.2455,0,0,0,0,0,0,-0.2258,-0.2266,-0.2346,-0.2315,-0.2326,-0.2376,-0.2391,-0.24,-0.2416,-0.2451,-0.2458,-0.2443,-0.2485,-0.2489,-0.2489,-0.2475,-0.2513,-0.2514,-0.2463,-0.246,-0.2456,-0.2441,0,0,0,0,0,0,-0.2254,-0.2265,-0.2269,-0.2315,-0.2328,-0.2366,-0.2391,-0.2401,-0.2422,-0.2427,-0.246,-0.2465,-0.2486,-0.2486,-0.249,-0.2477,-0.2515,-0.2466,-0.2461,-0.2458,-0.2445,-0.2438,-0.2432,0,0,0,0,0,-0.225,-0.2256,-0.2269,-0.2278,-0.2333,-0.2366,-0.2373,-0.241,-0.2422,-0.2427,-0.2438,-0.2465,-0.2462,-0.2486,-0.2491,-0.2478,-0.2468,-0.2463,-0.2458,-0.2447,-0.2439,-0.2432,0,0,0,0,0,0,-0.2218,-0.2263,-0.2278,-0.2299,-0.2329,-0.2376,-0.2384,-0.2406,-0.242,-0.2421,-0.245,-0.2455,-0.2444,-0.2452,-0.2479,-0.2442,-0.2463,-0.2459,-0.2454,-0.2446,-0.244,-0.2439,-0.2516,0,0,0,0,0,-0.221,-0.222,-0.2269,-0.2282,-0.2297,-0.2337,-0.2354,-0.2378,-0.2401,-0.2409,-0.2427,-0.243,-0.2424,-0.2431,-0.2427,-0.242,-0.2413,-0.2405,-0.2399,-0.2394,-0.2391,-0.2367,-0.236,-0.2439,-0.2439,-0.2439,0,0,-0.2199,-0.2225,-0.2232,-0.2274,-0.2299,-0.2317,-0.2348,-0.2373,-0.238,-0.241,-0.2412,-0.2412,-0.2413,-0.24,-0.2395,-0.2412,-0.2362,-0.2388,-0.2385,-0.2384,-0.2361,-0.2354,-0.2348,-0.2436,-0.2436,-0.2437,0,0,-0.2185,-0.2207,-0.2214,-0.2237,-0.2276,-0.2299,-0.2305,-0.2346,-0.2355,-0.2359,-0.2368,-0.2355,-0.2363,-0.2356,-0.2355,-0.2306,-0.2326,-0.2302,-0.2285,-0.2261,-0.2255,-0.225,-0.2218,-0.221,-0.2306,-0.2306,-0.2306,0,-0.217,-0.219,-0.222,-0.2235,-0.2251,-0.2289,-0.23,-0.2313,-0.2344,-0.2342,-0.2353,-0.2334,-0.2338,-0.2316,-0.2297,-0.2296,-0.2286,-0.2324,-0.2257,-0.2252,-0.2247,-0.2215,-0.2206,-0.2304,-0.2304,-0.2305,-0.2305,0,-0.2168,-0.2182,-0.2186,-0.2215,-0.2232,-0.2246,-0.2275,-0.228,-0.2292,-0.2305,-0.2285,-0.2283,-0.2273,-0.2264,-0.2273,-0.2233,-0.2236,-0.2252,-0.2287,-0.2239,-0.2206,-0.2198,-0.2302,-0.2303,-0.2303,-0.2304,0,0,-0.2141,-0.2177,-0.2178,-0.2185,-0.2222,-0.2236,-0.2238,-0.2252,-0.2248,-0.2256,-0.2243,-0.2223,-0.2225,-0.2219,-0.222,-0.2202,-0.2152,-0.2215,-0.2215,-0.2201,-0.2095,-0.2015,-0.1999,-0.2168,-0.2167,-0.2166,-0.2083,0,-0.2129,-0.2143,-0.2168,-0.2173,-0.2182,-0.221,-0.2209,-0.2221,-0.2227,-0.2219,-0.2211,-0.2196,-0.2207,-0.2199,-0.2181,-0.2164,-0.2132,-0.2173,-0.2127,-0.2125,-0.2076,-0.1986,-0.1904,-0.1816,-0.2075,-0.2074,-0.2073,0,-0.2117,-0.2129,-0.2133,-0.2149,-0.2156,-0.2161,-0.2163,-0.2169,-0.2169,-0.2173,-0.2164,-0.2165,-0.2134,-0.2149,-0.2097,-0.2128,-0.2101,-0.2088,-0.2085,-0.2011,-0.2029,-0.1906,-0.1792,-0.1769,-0.206,-0.2061,-0.2062,0,-0.2075,-0.21,-0.2097,-0.2105,-0.2132,-0.2129,-0.2139,-0.2147,-0.2145,-0.2138,-0.2133,-0.2114,-0.2096,-0.207,-0.2044,-0.207,-0.1984,-0.2016,-0.1913,-0.1908,-0.1826,-0.1814,-0.1699,-0.1958,-0.1958,-0.1958,-0.1959,0,-0.2048,-0.2044,-0.2074,-0.2072,-0.2062,-0.2094,-0.208,-0.209,-0.2095,-0.2084,-0.2101,-0.2083,-0.2078,-0.204,-0.202,-0.1927,-0.1959,-0.1879,-0.1869,-0.1813,-0.1802,-0.1771,-0.18,-0.1955,-0.1956,-0.1956,-0.1957,0,-0.1993,-0.2018,-0.2012,-0.2035,-0.204,-0.2028,-0.2046,-0.2035,-0.2053,-0.2037,-0.2034,-0.2043,-0.1991,-0.1967,-0.1914,-0.1877,-0.1765,-0.1773,-0.1699,-0.168,-0.155,-0.1582,-0.146,-0.1421,-0.163,-0.1627,-0.1625,0,-0.1961,-0.1952,-0.197,-0.1965,-0.1971,-0.1969,-0.1967,-0.1999,-0.1995,-0.201,-0.1994,-0.1956,-0.1905,-0.1791,-0.1718,-0.1623,-0.1652,-0.1501,-0.152,-0.1495,-0.1524,-0.1559,-0.154,-0.1406,-0.1402,-0.1399,-0.1396,0,-0.1888,-0.1895,-0.1893,-0.1883,-0.188,-0.1878,-0.1882,-0.1877,-0.1914,-0.1903,-0.1879,-0.1839,-0.1739,-0.1599,-0.1481,-0.1431,-0.145,-0.143,-0.1424,-0.1333,-0.1345,-0.1319,-0.1518,-0.1368,-0.1371,-0.1373,-0.1374,-0.1375,-0.182,-0.18,-0.1796,-0.1778,-0.1782,-0.1765,-0.1727,-0.1752,-0.1728,-0.1696,-0.1731,-0.1639,-0.1525,-0.1336,-0.1276,-0.114,-0.1225,-0.1109,-0.1148,-0.1185,-0.1139,-0.1259,-0.109,-0.1092,-0.1093,-0.1094,-0.1094,0,-0.1717,-0.1705,-0.1689,-0.1661,-0.1623,-0.1659,-0.1647,-0.1597,-0.1542,-0.1546,-0.1496,-0.1356,-0.1192,-0.111,-0.0956,-0.0885,-0.0891,-0.0874,-0.092,-0.0913,-0.1018,-0.0999,-0.0778,-0.0778,-0.0778,-0.0778,-0.0778,-0.0778,-0.1661,-0.1606,-0.1598,-0.1499,-0.1482,-0.139,-0.136,-0.132,-0.1295,-0.1199,-0.1139,-0.1119,-0.1026,-0.0954,-0.0816,-0.0768,-0.0773,-0.0734,-0.0778,-0.0878,-0.0905,-0.093,-0.0917,-0.0681,-0.0681,-0.0633,-0.0633,-0.0633]},{"header":{"parameterUnit":"m.s-1","parameterCategory":2,"la1":30.2991,"la2":30.254,"lo1":-89.0895,"lo2":-89.0444,"dy":0.0017,"dx":0.0017,"nx":28,"ny":28,"refTime":"2025-02-11T09:00:00:Z","depth":"0","parameterNumber":3,"parameterNumberName":"V-component_of_CURRENTS"},"data":[0,0,0,0,0,0,0,0,0,0,0,0,0,0,0,0,0,0,0,0,0,0,0,0,0,0,0,0,0,0,0,0,0,0,0,0,0,0,0,0,0,0,0,0,0,0,0,0,0,0,0,0,0,0,0,0,0,0,-0.0659,-0.0658,0,-0.0617,-0.0616,-0.0615,-0.057,-0.0569,-0.0569,-0.0568,-0.0463,-0.0461,-0.0458,0,0,0,0,0,0,0,0,0,0,0,0,0,-0.0633,-0.0634,-0.0659,-0.0658,-0.0658,-0.0617,-0.0616,-0.0615,-0.057,-0.0569,-0.0569,-0.0568,-0.0464,-0.0461,-0.0458,0,0,0,0,0,0,0,0,0,0,0,0,0,-0.062,-0.0634,-0.0659,-0.0633,-0.063,-0.0617,-0.0616,-0.0615,-0.057,-0.0569,-0.0569,-0.0568,-0.0465,-0.0461,-0.0458,-0.0447,0,0,-0.0447,-0.0445,0,0,0,0,0,0,0,0,-0.0621,-0.0621,-0.0637,-0.0634,-0.0632,-0.06,-0.0568,-0.0556,-0.057,-0.0589,-0.0568,-0.0568,-0.0506,-0.0499,-0.0489,-0.0442,-0.0437,-0.0446,-0.0444,-0.0443,-0.0441,0,0,0,0,0,0,0,-0.0622,-0.0622,-0.0639,-0.0637,-0.0633,-0.0601,-0.0598,-0.0566,-0.0548,-0.0588,-0.0585,-0.0585,-0.0503,-0.0492,-0.0486,-0.0436,-0.0446,-0.0443,-0.0441,-0.0439,-0.0367,-0.0367,0,0,0,0,0,0,-0.0638,-0.0624,-0.064,-0.0638,-0.0628,-0.0602,-0.0599,-0.0608,-0.0549,-0.0541,-0.0586,-0.0583,-0.0499,-0.049,-0.0482,-0.046,-0.0443,-0.0439,-0.0437,-0.0366,-0.0367,-0.0367,0,0,0,0,0,0,-0.0638,-0.064,-0.0642,-0.0631,-0.063,-0.0604,-0.0614,-0.0608,-0.06,-0.0549,-0.0539,-0.0584,-0.0498,-0.0487,-0.0454,-0.0456,-0.0437,-0.0434,-0.0366,-0.0367,-0.0367,-0.042,0,0,0,0,0,0,-0.0637,-0.064,-0.0647,-0.0633,-0.0631,-0.064,-0.0615,-0.0608,-0.0602,-0.0598,-0.0544,-0.0534,-0.0497,-0.046,-0.045,-0.0451,-0.0431,-0.0366,-0.0366,-0.0367,-0.0418,-0.0422,-0.0426,0,0,0,0,0,-0.0636,-0.0654,-0.0648,-0.065,-0.0644,-0.0641,-0.0637,-0.0613,-0.0603,-0.0603,-0.0564,-0.0536,-0.0456,-0.0457,-0.0446,-0.0445,-0.0366,-0.0366,-0.0367,-0.0416,-0.0421,-0.0426,0,0,0,0,0,0,-0.0646,-0.0651,-0.0644,-0.0662,-0.0654,-0.0634,-0.0634,-0.0621,-0.0592,-0.0587,-0.0537,-0.0524,-0.0497,-0.0466,-0.0468,-0.0426,-0.0407,-0.0406,-0.0448,-0.0453,-0.0457,-0.0463,-0.0428,0,0,0,0,0,-0.0654,-0.0667,-0.0663,-0.0675,-0.0676,-0.0656,-0.0651,-0.064,-0.0616,-0.0603,-0.0564,-0.0524,-0.0491,-0.0469,-0.0435,-0.0411,-0.0376,-0.0404,-0.0408,-0.0412,-0.041,-0.0372,-0.0373,-0.0369,-0.0369,-0.0369,0,0,-0.066,-0.0665,-0.0672,-0.0678,-0.0669,-0.0673,-0.0651,-0.0653,-0.0648,-0.0596,-0.0572,-0.0538,-0.0489,-0.0462,-0.0447,-0.0435,-0.0393,-0.0413,-0.0416,-0.0412,-0.0373,-0.0373,-0.0373,-0.0369,-0.0369,-0.0369,0,0,-0.0683,-0.0687,-0.0705,-0.0705,-0.0704,-0.069,-0.0696,-0.0679,-0.0663,-0.0642,-0.0603,-0.0573,-0.052,-0.0485,-0.0461,-0.0467,-0.0419,-0.0458,-0.0476,-0.0441,-0.0441,-0.044,-0.0391,-0.0386,-0.0456,-0.0456,-0.0456,0,-0.0688,-0.0714,-0.0708,-0.0724,-0.0726,-0.0703,-0.0717,-0.0699,-0.067,-0.0655,-0.0642,-0.0567,-0.0531,-0.0492,-0.0494,-0.0476,-0.0443,-0.0463,-0.0446,-0.0445,-0.0443,-0.0393,-0.0387,-0.0459,-0.0459,-0.0458,-0.0458,0,-0.0726,-0.0742,-0.0754,-0.0765,-0.0763,-0.0774,-0.0754,-0.0741,-0.0719,-0.0695,-0.0658,-0.0607,-0.0561,-0.0548,-0.052,-0.0492,-0.0467,-0.046,-0.0436,-0.0447,-0.0393,-0.0386,-0.0463,-0.0462,-0.0461,-0.046,0,0,-0.0748,-0.0776,-0.0779,-0.079,-0.0788,-0.0791,-0.0781,-0.0764,-0.0751,-0.0716,-0.0692,-0.0641,-0.0612,-0.0583,-0.0545,-0.0511,-0.0474,-0.0484,-0.0481,-0.0438,-0.0381,-0.0324,-0.031,-0.0464,-0.0463,-0.0462,-0.0346,0,-0.0777,-0.082,-0.082,-0.0844,-0.0862,-0.0837,-0.0828,-0.0805,-0.0772,-0.0741,-0.0689,-0.0651,-0.0625,-0.0601,-0.0567,-0.0495,-0.0457,-0.0505,-0.0374,-0.037,-0.032,-0.03,-0.0272,-0.0163,-0.0338,-0.0337,-0.0336,0,-0.0814,-0.0837,-0.0875,-0.0885,-0.0889,-0.0894,-0.0871,-0.0859,-0.0808,-0.078,-0.0735,-0.0689,-0.0628,-0.0611,-0.0495,-0.0526,-0.0461,-0.0406,-0.04,-0.0323,-0.0298,-0.018,-0.0142,-0.0067,-0.0323,-0.0324,-0.0325,0,-0.084,-0.0872,-0.0904,-0.0911,-0.0917,-0.0919,-0.0912,-0.0872,-0.0854,-0.0801,-0.0774,-0.0703,-0.0651,-0.0574,-0.0456,-0.0476,-0.0321,-0.0334,-0.0218,-0.0213,-0.015,-0.014,-0.0024,-0.0257,-0.0257,-0.0258,-0.0258,0,-0.0876,-0.0898,-0.0921,-0.094,-0.0962,-0.0951,-0.0952,-0.093,-0.0888,-0.0857,-0.0797,-0.0743,-0.0639,-0.0536,-0.0452,-0.0294,-0.0313,-0.0208,-0.0177,-0.0166,-0.016,-0.006,-0.0038,-0.0253,-0.0254,-0.0255,-0.0256,0,-0.0902,-0.092,-0.0956,-0.0975,-0.0981,-0.0996,-0.0988,-0.0979,-0.0933,-0.0889,-0.087,-0.076,-0.0614,-0.0493,-0.034,-0.0268,-0.0074,-0.0082,-0.0067,-0.0036,0.0123,0.014,0.0304,0.0365,0.0055,0.0057,0.0059,0,-0.0921,-0.0945,-0.0985,-0.1008,-0.102,-0.1036,-0.1041,-0.101,-0.0988,-0.0886,-0.0859,-0.0712,-0.0584,-0.0331,-0.0177,-0.0,0.0044,0.0119,0.008,0.0154,0.0196,0.0201,0.024,0.0147,0.015,0.0152,0.0153,0,-0.0949,-0.0964,-0.0996,-0.1044,-0.1067,-0.1082,-0.108,-0.1068,-0.1006,-0.0939,-0.0811,-0.0699,-0.0445,-0.0218,0.0009,0.0105,0.0185,0.0165,0.0237,0.0282,0.0301,0.0367,0.0054,0.0171,0.0169,0.0168,0.0167,0.0166,-0.0961,-0.0993,-0.1034,-0.1076,-0.1103,-0.1111,-0.1103,-0.1065,-0.1005,-0.0867,-0.0769,-0.0543,-0.0271,0.0062,0.0169,0.0386,0.035,0.0434,0.0452,0.0454,0.0504,0.0239,0.0389,0.0389,0.0389,0.0388,0.0388,0,-0.0972,-0.1012,-0.1059,-0.1105,-0.1128,-0.1133,-0.1111,-0.1062,-0.0964,-0.0801,-0.0641,-0.0259,0.0017,0.0254,0.0538,0.0653,0.0662,0.0706,0.0707,0.0735,0.0503,0.0498,0.0684,0.0684,0.0684,0.0684,0.0684,0.0684,-0.098,-0.1031,-0.106,-0.1107,-0.1131,-0.1126,-0.1101,-0.1,-0.0864,-0.0573,-0.0312,-0.0098,0.0236,0.0605,0.0851,0.0876,0.096,0.0965,0.1012,0.0826,0.0801,0.0777,0.0777,0.1019,0.102,0.1234,0.1236,0.1238]}],[{"header":{"parameterUnit":"m.s-1","parameterCategory":2,"la1":30.2991,"la2":30.254,"lo1":-89.0895,"lo2":-89.0444,"dy":0.0017,"dx":0.0017,"nx":28,"ny":28,"refTime":"2025-02-11T09:00:00:Z","depth":"2","parameterNumber":2,"parameterNumberName":"U-component_of_CURRENTS"},"data":[0,0,0,0,0,0,0,0,0,0,0,0,0,0,0,0,0,0,0,0,0,0,0,0,0,0,0,0,0,0,0,0,0,0,0,0,0,0,0,0,0,0,0,0,0,0,0,0,0,0,0,0,0,0,0,0,0,0,-0.1882,-0.1882,0,-0.1911,-0.1912,-0.1912,-0.1926,-0.1926,-0.1926,-0.1926,-0.1919,-0.1919,-0.1919,0,0,0,0,0,0,0,0,0,0,0,0,0,-0.1825,-0.1825,-0.1882,-0.1882,-0.1883,-0.1911,-0.1912,-0.1912,-0.1926,-0.1926,-0.1926,-0.1926,-0.192,-0.1919,-0.1919,0,0,0,0,0,0,0,0,0,0,0,0,0,-0.1849,-0.1826,-0.1882,-0.1895,-0.1896,-0.1911,-0.1912,-0.1912,-0.1926,-0.1926,-0.1926,-0.1927,-0.192,-0.1919,-0.1919,-0.191,0,0,-0.1917,-0.1917,0,0,0,0,0,0,0,0,-0.1848,-0.1851,-0.1892,-0.1894,-0.1896,-0.1917,-0.1889,-0.191,-0.1926,-0.1913,-0.1926,-0.1927,-0.1916,-0.1916,-0.1919,-0.191,-0.191,-0.1917,-0.1917,-0.1917,-0.1916,0,0,0,0,0,0,0,-0.1846,-0.185,-0.1892,-0.1893,-0.1895,-0.1895,-0.1899,-0.1893,-0.191,-0.1914,-0.1915,-0.1922,-0.1917,-0.1919,-0.1919,-0.191,-0.1917,-0.1917,-0.1916,-0.1916,-0.1892,-0.1892,0,0,0,0,0,0,-0.1847,-0.1849,-0.1891,-0.1893,-0.1874,-0.1896,-0.19,-0.1908,-0.1911,-0.1913,-0.1921,-0.1922,-0.192,-0.1919,-0.1918,-0.1912,-0.1917,-0.1916,-0.1916,-0.1893,-0.1892,-0.1892,0,0,0,0,0,0,-0.1846,-0.1851,-0.1889,-0.1873,-0.1878,-0.1897,-0.1906,-0.1909,-0.1919,-0.1918,-0.1919,-0.193,-0.192,-0.1919,-0.1919,-0.1911,-0.1916,-0.1915,-0.1893,-0.1892,-0.1892,-0.1896,0,0,0,0,0,0,-0.1844,-0.185,-0.1855,-0.1873,-0.1879,-0.1899,-0.1906,-0.1909,-0.1923,-0.1925,-0.1925,-0.1925,-0.192,-0.192,-0.1919,-0.1911,-0.1915,-0.1893,-0.1893,-0.1892,-0.1897,-0.1896,-0.1896,0,0,0,0,0,-0.1842,-0.1846,-0.1855,-0.186,-0.1885,-0.1899,-0.1902,-0.1915,-0.1923,-0.1925,-0.1929,-0.1925,-0.1915,-0.192,-0.1918,-0.191,-0.1894,-0.1893,-0.1892,-0.1897,-0.1896,-0.1896,0,0,0,0,0,0,-0.1825,-0.1849,-0.1858,-0.187,-0.1885,-0.1902,-0.1906,-0.1919,-0.1924,-0.1925,-0.1926,-0.1925,-0.1918,-0.1915,-0.192,-0.19,-0.1901,-0.19,-0.1905,-0.1905,-0.1904,-0.1892,-0.1915,0,0,0,0,0,-0.1824,-0.183,-0.1855,-0.1863,-0.1871,-0.189,-0.1898,-0.1909,-0.1919,-0.1922,-0.1923,-0.192,-0.1913,-0.1911,-0.1903,-0.1897,-0.1879,-0.1889,-0.1888,-0.1888,-0.1876,-0.1851,-0.1847,-0.1889,-0.1889,-0.1889,0,0,-0.1818,-0.1833,-0.1836,-0.186,-0.1871,-0.1881,-0.1895,-0.1908,-0.1912,-0.1919,-0.1919,-0.1918,-0.191,-0.1902,-0.1898,-0.19,-0.1866,-0.1887,-0.1887,-0.1875,-0.185,-0.1845,-0.1842,-0.1889,-0.1889,-0.1889,0,0,-0.181,-0.1825,-0.1829,-0.1842,-0.1863,-0.1874,-0.1881,-0.1901,-0.1905,-0.1911,-0.1911,-0.1903,-0.1904,-0.1889,-0.1883,-0.1873,-0.1863,-0.1878,-0.1867,-0.1843,-0.1839,-0.1836,-0.1808,-0.1802,-0.1879,-0.1879,-0.1879,0,-0.1803,-0.1815,-0.1831,-0.1841,-0.185,-0.1872,-0.188,-0.1885,-0.1902,-0.1901,-0.1909,-0.1898,-0.189,-0.1872,-0.1868,-0.187,-0.186,-0.1873,-0.1842,-0.1838,-0.1835,-0.1807,-0.18,-0.1879,-0.1879,-0.1879,-0.1879,0,-0.18,-0.1811,-0.1813,-0.1831,-0.1842,-0.185,-0.1867,-0.1873,-0.1884,-0.189,-0.1882,-0.1873,-0.1865,-0.1862,-0.1863,-0.1834,-0.1837,-0.1844,-0.1844,-0.1831,-0.1802,-0.1795,-0.1879,-0.1879,-0.1879,-0.1879,0,0,-0.1781,-0.1806,-0.1807,-0.1813,-0.1838,-0.1845,-0.185,-0.1859,-0.186,-0.1867,-0.1862,-0.1844,-0.1845,-0.1837,-0.1836,-0.1814,-0.1777,-0.1822,-0.182,-0.1794,-0.1726,-0.1659,-0.1644,-0.179,-0.1788,-0.1787,-0.1717,0,-0.1773,-0.1783,-0.18,-0.1806,-0.1812,-0.1833,-0.1836,-0.1845,-0.1853,-0.1851,-0.184,-0.1833,-0.1835,-0.1833,-0.1811,-0.179,-0.1759,-0.1795,-0.1742,-0.174,-0.1682,-0.1634,-0.1531,-0.1453,-0.171,-0.1709,-0.1708,0,-0.1762,-0.1771,-0.1776,-0.1793,-0.1798,-0.1804,-0.1813,-0.1819,-0.1823,-0.1829,-0.1825,-0.1825,-0.1795,-0.18,-0.1743,-0.1773,-0.1741,-0.1721,-0.1719,-0.1646,-0.1658,-0.1508,-0.143,-0.1696,-0.1697,-0.1697,-0.1698,0,-0.173,-0.1751,-0.1751,-0.1758,-0.1782,-0.1785,-0.1797,-0.1808,-0.181,-0.1812,-0.1814,-0.1794,-0.1777,-0.1744,-0.1705,-0.1726,-0.164,-0.1663,-0.1567,-0.1563,-0.1455,-0.1443,-0.1602,-0.1603,-0.1603,-0.1603,-0.1603,0,-0.1707,-0.1707,-0.1736,-0.1736,-0.1735,-0.1762,-0.1761,-0.1773,-0.1785,-0.1779,-0.1797,-0.1782,-0.1763,-0.1723,-0.1691,-0.1597,-0.1624,-0.154,-0.1529,-0.1454,-0.1442,-0.1642,-0.1647,-0.16,-0.1601,-0.1601,-0.1602,0,-0.1661,-0.1685,-0.1684,-0.171,-0.1718,-0.1714,-0.174,-0.1737,-0.1761,-0.1753,-0.1753,-0.1758,-0.1701,-0.1668,-0.1602,-0.1561,-0.1491,-0.1451,-0.1359,-0.1338,-0.1437,-0.1443,-0.133,-0.1327,-0.1325,-0.1322,-0.132,0,-0.1634,-0.1629,-0.1654,-0.1654,-0.1663,-0.1671,-0.1675,-0.1711,-0.1713,-0.1731,-0.1719,-0.1681,-0.1624,-0.1506,-0.1425,-0.1328,-0.1399,-0.1186,-0.1193,-0.1401,-0.1403,-0.1415,-0.1425,-0.1057,-0.1053,-0.105,-0.1047,0,-0.1572,-0.1583,-0.1586,-0.1587,-0.1592,-0.1596,-0.1608,-0.1609,-0.1645,-0.1637,-0.1608,-0.1565,-0.1463,-0.1306,-0.1191,-0.1134,-0.1196,-0.1116,-0.1339,-0.1145,-0.1138,-0.1143,-0.1162,-0.1019,-0.1022,-0.1024,-0.1025,-0.1026,-0.1516,-0.1503,-0.1506,-0.1498,-0.1509,-0.1497,-0.1464,-0.1486,-0.1464,-0.1422,-0.1454,-0.1339,-0.1295,-0.1047,-0.0962,-0.0893,-0.0983,-0.094,-0.0952,-0.0967,-0.0951,-0.094,-0.0781,-0.0782,-0.0783,-0.0784,-0.0785,0,-0.1428,-0.1421,-0.1414,-0.1396,-0.1367,-0.1404,-0.1394,-0.1338,-0.1275,-0.1255,-0.1194,-0.101,-0.0883,-0.0843,-0.0685,-0.0641,-0.0658,-0.0616,-0.0649,-0.0677,-0.0702,-0.0676,-0.043,-0.0429,-0.0428,-0.0427,0,0,-0.138,-0.1336,-0.1331,-0.1248,-0.1237,-0.1152,-0.1121,-0.1063,-0.1019,-0.0911,-0.0839,-0.0853,-0.0829,-0.0643,-0.0584,-0.0483,-0.0582,-0.0453,-0.0738,-0.0807,-0.0831,-0.0885,-0.0874,0,0,0,0,0]},{"header":{"parameterUnit":"m.s-1","parameterCategory":2,"la1":30.2991,"la2":30.254,"lo1":-89.0895,"lo2":-89.0444,"dy":0.0017,"dx":0.0017,"nx":28,"ny":28,"refTime":"2025-02-11T09:00:00:Z","depth":"2","parameterNumber":3,"parameterNumberName":"V-component_of_CURRENTS"},"data":[0,0,0,0,0,0,0,0,0,0,0,0,0,0,0,0,0,0,0,0,0,0,0,0,0,0,0,0,0,0,0,0,0,0,0,0,0,0,0,0,0,0,0,0,0,0,0,0,0,0,0,0,0,0,0,0,0,0,-0.0515,-0.0515,0,-0.0481,-0.048,-0.048,-0.0447,-0.0447,-0.0447,-0.0447,-0.0358,-0.0356,-0.0353,0,0,0,0,0,0,0,0,0,0,0,0,0,-0.0493,-0.0493,-0.0515,-0.0515,-0.0515,-0.0481,-0.048,-0.0479,-0.0447,-0.0447,-0.0447,-0.0447,-0.0358,-0.0356,-0.0353,0,0,0,0,0,0,0,0,0,0,0,0,0,-0.0483,-0.0494,-0.0515,-0.0496,-0.0494,-0.0481,-0.048,-0.0479,-0.0447,-0.0447,-0.0447,-0.0446,-0.0359,-0.0356,-0.0353,-0.0338,0,0,-0.0343,-0.0341,0,0,0,0,0,0,0,0,-0.0483,-0.0483,-0.0499,-0.0497,-0.0495,-0.047,-0.044,-0.043,-0.0447,-0.0463,-0.0447,-0.0446,-0.0392,-0.0386,-0.0378,-0.0334,-0.033,-0.0343,-0.0341,-0.0339,-0.0338,0,0,0,0,0,0,0,-0.0484,-0.0484,-0.0499,-0.0499,-0.0497,-0.0469,-0.0468,-0.0438,-0.0426,-0.0461,-0.0459,-0.046,-0.039,-0.0381,-0.0375,-0.0329,-0.0343,-0.034,-0.0338,-0.0336,-0.026,-0.026,0,0,0,0,0,0,-0.0497,-0.0485,-0.05,-0.0498,-0.0491,-0.047,-0.0469,-0.0477,-0.0428,-0.0421,-0.046,-0.0458,-0.0387,-0.0379,-0.0372,-0.0345,-0.0339,-0.0336,-0.0334,-0.026,-0.026,-0.026,0,0,0,0,0,0,-0.0497,-0.0499,-0.0501,-0.0492,-0.0491,-0.0472,-0.048,-0.0476,-0.0471,-0.0428,-0.042,-0.046,-0.0386,-0.0376,-0.0345,-0.0341,-0.0335,-0.0332,-0.026,-0.026,-0.026,-0.0295,0,0,0,0,0,0,-0.0496,-0.0499,-0.0506,-0.0494,-0.0492,-0.0499,-0.0481,-0.0476,-0.0472,-0.047,-0.0425,-0.0417,-0.0385,-0.035,-0.0342,-0.0337,-0.0329,-0.026,-0.026,-0.026,-0.0294,-0.0296,-0.0298,0,0,0,0,0,-0.0496,-0.0511,-0.0507,-0.0508,-0.0504,-0.05,-0.0496,-0.0479,-0.0473,-0.0473,-0.044,-0.0418,-0.0344,-0.0348,-0.0338,-0.0331,-0.026,-0.026,-0.026,-0.0293,-0.0295,-0.0298,0,0,0,0,0,0,-0.0504,-0.0509,-0.0504,-0.0519,-0.0512,-0.0495,-0.0496,-0.0486,-0.0461,-0.0459,-0.0416,-0.0405,-0.0377,-0.0351,-0.0357,-0.0309,-0.0299,-0.0297,-0.0327,-0.0329,-0.0331,-0.0336,-0.0326,0,0,0,0,0,-0.0511,-0.0523,-0.0518,-0.0529,-0.053,-0.0514,-0.051,-0.0502,-0.0481,-0.0471,-0.0437,-0.0401,-0.0368,-0.0348,-0.0317,-0.029,-0.026,-0.028,-0.0282,-0.0284,-0.0281,-0.0236,-0.0233,-0.0259,-0.0259,-0.0259,0,0,-0.0517,-0.0521,-0.0527,-0.0532,-0.0525,-0.0527,-0.0511,-0.0513,-0.0505,-0.0464,-0.044,-0.0409,-0.0364,-0.0334,-0.0319,-0.0311,-0.0261,-0.0284,-0.0286,-0.0281,-0.0235,-0.0233,-0.023,-0.0259,-0.0259,-0.0259,0,0,-0.0536,-0.0541,-0.0556,-0.0555,-0.0554,-0.0542,-0.0547,-0.0532,-0.0517,-0.0496,-0.0462,-0.0428,-0.0382,-0.0343,-0.0319,-0.0314,-0.0277,-0.0308,-0.0315,-0.0272,-0.0269,-0.0267,-0.0229,-0.0223,-0.0305,-0.0305,-0.0305,0,-0.0541,-0.0563,-0.0558,-0.0571,-0.0571,-0.0552,-0.0563,-0.0544,-0.0518,-0.05,-0.0494,-0.0418,-0.0383,-0.0335,-0.0333,-0.0317,-0.0291,-0.0311,-0.0274,-0.0271,-0.0268,-0.023,-0.0222,-0.0307,-0.0306,-0.0306,-0.0306,0,-0.0573,-0.0586,-0.0596,-0.0603,-0.06,-0.0608,-0.0587,-0.0573,-0.0554,-0.0529,-0.0486,-0.0436,-0.039,-0.0374,-0.035,-0.0308,-0.0297,-0.0287,-0.027,-0.0267,-0.0227,-0.0219,-0.0309,-0.0308,-0.0308,-0.0307,0,0,-0.0592,-0.0614,-0.0616,-0.0625,-0.062,-0.0621,-0.0606,-0.0582,-0.0567,-0.0531,-0.0502,-0.0443,-0.0417,-0.0388,-0.0351,-0.031,-0.0265,-0.0292,-0.0289,-0.0257,-0.0172,-0.0147,-0.0136,-0.0251,-0.0249,-0.0248,-0.0155,0,-0.0615,-0.065,-0.0648,-0.0665,-0.0679,-0.0655,-0.0639,-0.0613,-0.0579,-0.0543,-0.0486,-0.0447,-0.0422,-0.04,-0.0355,-0.0288,-0.0244,-0.0291,-0.0176,-0.0173,-0.0153,-0.0125,-0.0135,-0.0051,-0.0147,-0.0145,-0.0144,0,-0.0646,-0.0664,-0.0695,-0.0698,-0.0701,-0.0702,-0.0673,-0.0657,-0.0598,-0.0571,-0.0521,-0.0476,-0.0407,-0.0392,-0.0272,-0.0305,-0.0243,-0.0191,-0.0186,-0.0143,-0.0132,-0.0067,-0.0032,-0.013,-0.0131,-0.0132,-0.0133,0,-0.0669,-0.0693,-0.0718,-0.0723,-0.0723,-0.0722,-0.0713,-0.0667,-0.0647,-0.0587,-0.0563,-0.048,-0.0434,-0.0349,-0.0243,-0.0256,-0.0112,-0.0115,-0.0032,-0.0029,-0.0004,-0.0001,-0.0029,-0.0029,-0.0029,-0.0029,-0.003,0,-0.0698,-0.0716,-0.0734,-0.075,-0.0767,-0.0753,-0.0749,-0.0723,-0.0678,-0.0648,-0.0583,-0.0534,-0.042,-0.0325,-0.024,-0.0104,-0.0106,-0.0021,0.0003,-0.0017,-0.0017,-0.006,-0.0065,-0.0026,-0.0027,-0.0027,-0.0028,0,-0.0722,-0.0737,-0.0767,-0.078,-0.0785,-0.0797,-0.0788,-0.0777,-0.073,-0.0688,-0.067,-0.0562,-0.0434,-0.0315,-0.0161,-0.0093,0.0028,0.0075,0.0043,0.0061,0.0077,0.0069,0.0175,0.0177,0.0179,0.018,0.0181,0,-0.0739,-0.076,-0.0794,-0.0816,-0.0828,-0.0841,-0.0846,-0.0811,-0.0792,-0.0698,-0.0676,-0.0545,-0.0437,-0.0208,-0.0062,0.0101,0.0089,0.0178,0.0155,0.0089,0.0101,0.0091,0.0081,0.0174,0.0175,0.0176,0.0176,0,-0.0764,-0.0779,-0.0807,-0.0854,-0.0878,-0.0893,-0.0893,-0.0884,-0.0825,-0.0767,-0.0661,-0.0565,-0.0345,-0.0156,0.0046,0.0135,0.0148,0.0199,0.0159,0.0118,0.0094,0.0103,0.0093,0.0183,0.0182,0.0182,0.0182,0.0181,-0.0779,-0.0809,-0.0849,-0.089,-0.0918,-0.0932,-0.0928,-0.0899,-0.0851,-0.0736,-0.0652,-0.0469,-0.0318,-0.0003,0.0123,0.0241,0.023,0.0257,0.0252,0.0247,0.0225,0.0204,0.031,0.031,0.031,0.031,0.031,0,-0.0794,-0.0832,-0.0877,-0.0924,-0.0951,-0.0957,-0.0945,-0.0905,-0.0831,-0.0701,-0.0571,-0.0352,-0.0145,0.0018,0.0213,0.0311,0.029,0.0326,0.0274,0.0268,0.0262,0.0237,0.0327,0.0327,0.0328,0.0328,0,0,-0.0805,-0.0855,-0.0882,-0.0935,-0.0963,-0.0969,-0.0954,-0.087,-0.0762,-0.0606,-0.0454,-0.0294,-0.0104,0.0033,0.0148,0.025,0.0232,0.0259,0.0236,0.0154,0.0147,0.0215,0.0169,0,0,0,0,0]}],[{"header":{"parameterUnit":"m.s-1","parameterCategory":2,"la1":30.2991,"la2":30.254,"lo1":-89.0895,"lo2":-89.0444,"dy":0.0017,"dx":0.0017,"nx":28,"ny":28,"refTime":"2025-02-11T09:00:00:Z","depth":"4","parameterNumber":2,"parameterNumberName":"U-component_of_CURRENTS"},"data":[0,0,0,0,0,0,0,0,0,0,0,0,0,0,0,0,0,0,0,0,0,0,0,0,0,0,0,0,0,0,0,0,0,0,0,0,0,0,0,0,0,0,0,0,0,0,0,0,0,0,0,0,0,0,0,0,0,0,-0.1252,-0.1252,0,-0.1269,-0.1269,-0.1269,-0.1291,-0.1291,-0.1292,-0.1292,-0.1311,-0.1311,-0.1311,0,0,0,0,0,0,0,0,0,0,0,0,0,-0.1212,-0.1213,-0.1252,-0.1252,-0.1252,-0.1269,-0.1269,-0.1269,-0.1291,-0.1291,-0.1292,-0.1292,-0.1311,-0.1311,-0.1311,0,0,0,0,0,0,0,0,0,0,0,0,0,-0.1228,-0.1213,-0.1251,-0.1266,-0.1268,-0.1269,-0.1269,-0.1269,-0.1291,-0.1291,-0.1292,-0.1293,-0.1311,-0.1311,-0.1311,-0.1298,0,0,-0.1311,-0.1312,0,0,0,0,0,0,0,0,-0.1227,-0.1229,-0.1264,-0.1265,-0.1267,-0.128,-0.1262,-0.1279,-0.129,-0.128,-0.1292,-0.1293,-0.1301,-0.1302,-0.1302,-0.1299,-0.1299,-0.1312,-0.1312,-0.1312,-0.1312,0,0,0,0,0,0,0,-0.1226,-0.1228,-0.1257,-0.1264,-0.1266,-0.1263,-0.1266,-0.1265,-0.1286,-0.1281,-0.1283,-0.1287,-0.1302,-0.1302,-0.1302,-0.13,-0.1312,-0.1312,-0.1312,-0.1312,-0.1352,-0.1353,0,0,0,0,0,0,-0.1227,-0.1228,-0.1257,-0.1258,-0.125,-0.1264,-0.1267,-0.1274,-0.1286,-0.1288,-0.1287,-0.1288,-0.1301,-0.1302,-0.1303,-0.1338,-0.1312,-0.1312,-0.1312,-0.1351,-0.1352,-0.1354,0,0,0,0,0,0,-0.1226,-0.123,-0.1256,-0.1244,-0.1247,-0.1264,-0.1271,-0.1274,-0.1298,-0.129,-0.1293,-0.1312,-0.1302,-0.1303,-0.1326,-0.1338,-0.1312,-0.1312,-0.135,-0.1352,-0.1353,-0.1377,0,0,0,0,0,0,-0.1225,-0.1229,-0.1244,-0.1244,-0.1248,-0.1268,-0.1271,-0.1274,-0.1299,-0.1302,-0.1311,-0.1313,-0.1302,-0.1326,-0.1326,-0.1337,-0.1312,-0.1349,-0.1351,-0.1353,-0.1375,-0.1379,-0.1382,0,0,0,0,0,-0.1224,-0.1234,-0.1245,-0.1249,-0.1265,-0.1269,-0.1271,-0.1283,-0.13,-0.1309,-0.1323,-0.1314,-0.1338,-0.1326,-0.1326,-0.1338,-0.1348,-0.135,-0.1352,-0.1373,-0.1378,-0.1382,0,0,0,0,0,0,-0.1225,-0.1237,-0.1249,-0.1265,-0.1274,-0.1273,-0.1286,-0.1298,-0.1317,-0.1328,-0.1325,-0.1327,-0.1349,-0.1345,-0.1333,-0.1357,-0.1342,-0.1344,-0.1357,-0.1362,-0.1366,-0.1349,-0.1312,0,0,0,0,0,-0.1233,-0.1246,-0.1255,-0.127,-0.1277,-0.1289,-0.1298,-0.1308,-0.1319,-0.1329,-0.1338,-0.1349,-0.1353,-0.1361,-0.1363,-0.1377,-0.1355,-0.1387,-0.1391,-0.1394,-0.1382,-0.1362,-0.1362,-0.1361,-0.1361,-0.1361,0,0,-0.1238,-0.1247,-0.1256,-0.1272,-0.1282,-0.1291,-0.1296,-0.1315,-0.1327,-0.1327,-0.1356,-0.1362,-0.1361,-0.1375,-0.1385,-0.1377,-0.1386,-0.1397,-0.1399,-0.1385,-0.1364,-0.1364,-0.1364,-0.1363,-0.1362,-0.1362,0,0,-0.1243,-0.1265,-0.1275,-0.1285,-0.1304,-0.1309,-0.1321,-0.1336,-0.1351,-0.1375,-0.1378,-0.139,-0.141,-0.14,-0.1399,-0.1427,-0.1406,-0.1443,-0.1448,-0.143,-0.1429,-0.1428,-0.1408,-0.1405,-0.1445,-0.1445,-0.1446,0,-0.1252,-0.1265,-0.1278,-0.1289,-0.1301,-0.132,-0.1333,-0.1344,-0.1368,-0.1379,-0.1391,-0.1414,-0.1413,-0.1416,-0.1426,-0.1432,-0.1423,-0.1428,-0.1432,-0.1431,-0.1429,-0.1409,-0.1405,-0.1447,-0.1447,-0.1447,-0.1446,0,-0.1255,-0.1277,-0.1283,-0.1304,-0.1318,-0.1332,-0.1348,-0.1371,-0.1397,-0.1406,-0.143,-0.143,-0.144,-0.1447,-0.1444,-0.1441,-0.1439,-0.1437,-0.1414,-0.143,-0.1408,-0.1404,-0.1449,-0.1448,-0.1448,-0.1448,0,0,-0.1245,-0.128,-0.1286,-0.1301,-0.133,-0.1338,-0.1364,-0.1384,-0.1403,-0.1428,-0.1444,-0.1451,-0.1457,-0.1456,-0.1457,-0.1441,-0.1424,-0.144,-0.1439,-0.141,-0.1388,-0.1299,-0.1286,-0.143,-0.1429,-0.1429,-0.1379,0,-0.1247,-0.1269,-0.1288,-0.1314,-0.1325,-0.1355,-0.1375,-0.1398,-0.1422,-0.1443,-0.1445,-0.1461,-0.146,-0.1471,-0.1455,-0.1435,-0.1414,-0.1438,-0.1386,-0.1383,-0.1293,-0.1277,-0.1426,-0.1376,-0.1375,-0.1374,-0.1374,0,-0.1237,-0.1256,-0.1282,-0.132,-0.1329,-0.1352,-0.139,-0.1409,-0.1437,-0.1456,-0.1471,-0.1478,-0.1468,-0.1464,-0.1422,-0.1444,-0.1414,-0.1392,-0.1389,-0.1289,-0.1285,-0.1356,-0.1365,-0.1366,-0.1367,-0.1367,-0.1368,0,-0.1208,-0.1249,-0.1272,-0.1285,-0.133,-0.1355,-0.1382,-0.1417,-0.1434,-0.1465,-0.148,-0.1477,-0.1474,-0.1444,-0.1404,-0.1419,-0.1348,-0.136,-0.1246,-0.1241,-0.1326,-0.1328,-0.1311,-0.1311,-0.1311,-0.1311,-0.1312,0,-0.1184,-0.1205,-0.1266,-0.1278,-0.1309,-0.1347,-0.1381,-0.1409,-0.1444,-0.1452,-0.1484,-0.1477,-0.1469,-0.1436,-0.1401,-0.13,-0.1342,-0.1228,-0.1212,-0.1341,-0.1344,-0.1323,-0.1326,-0.131,-0.131,-0.131,-0.1311,0,-0.1136,-0.118,-0.121,-0.1273,-0.1295,-0.1317,-0.1379,-0.1393,-0.1439,-0.1449,-0.1459,-0.1472,-0.142,-0.1395,-0.1333,-0.1277,-0.1205,-0.1159,-0.1291,-0.1288,-0.1115,-0.1119,-0.1024,-0.102,-0.1017,-0.1014,-0.1012,0,-0.1107,-0.112,-0.1197,-0.122,-0.1252,-0.1297,-0.132,-0.138,-0.1391,-0.1428,-0.1416,-0.1396,-0.1387,-0.122,-0.1215,-0.1126,-0.1108,-0.107,-0.1089,-0.1085,-0.1081,-0.109,-0.1099,-0.1007,-0.1006,-0.1005,-0.1004,0,-0.1049,-0.1091,-0.1119,-0.1164,-0.1202,-0.123,-0.127,-0.1269,-0.1321,-0.1382,-0.132,-0.1271,-0.1206,-0.1143,-0.1075,-0.102,-0.1097,-0.1037,-0.1044,-0.106,-0.1064,-0.1064,-0.1077,-0.0993,-0.0995,-0.0996,-0.0996,0,-0.1007,-0.1014,-0.1059,-0.1084,-0.1134,-0.1134,-0.117,-0.1166,-0.118,-0.1227,-0.1202,-0.1177,-0.1193,-0.1086,-0.103,-0.096,-0.0942,-0.0908,-0.0922,-0.0934,-0.0924,-0.0917,-0.0767,0,0,0,0,0,-0.0952,-0.0947,-0.0971,-0.0991,-0.1037,-0.1057,-0.1117,-0.1152,-0.1211,-0.1132,-0.116,-0.1093,-0.0997,-0.0991,-0.0892,-0.0984,-0.0949,-0.0866,-0.092,-0.0932,-0.0944,-0.094,0,0,0,0,0,0,-0.0914,-0.0933,-0.0936,-0.0904,-0.0898,-0.0926,-0.0959,-0.1002,-0.0964,-0.1027,-0.0975,-0.1021,-0.094,-0.1021,-0.0865,-0.086,-0.0869,-0.0862,-0.0859,-0.0924,-0.0936,-0.0946,-0.0946,0,0,0,0,0]},{"header":{"parameterUnit":"m.s-1","parameterCategory":2,"la1":30.2991,"la2":30.254,"lo1":-89.0895,"lo2":-89.0444,"dy":0.0017,"dx":0.0017,"nx":28,"ny":28,"refTime":"2025-02-11T09:00:00:Z","depth":"4","parameterNumber":3,"parameterNumberName":"V-component_of_CURRENTS"},"data":[0,0,0,0,0,0,0,0,0,0,0,0,0,0,0,0,0,0,0,0,0,0,0,0,0,0,0,0,0,0,0,0,0,0,0,0,0,0,0,0,0,0,0,0,0,0,0,0,0,0,0,0,0,0,0,0,0,0,-0.0359,-0.0359,0,-0.0345,-0.0344,-0.0344,-0.0335,-0.0336,-0.0336,-0.0336,-0.0284,-0.0283,-0.0281,0,0,0,0,0,0,0,0,0,0,0,0,0,-0.0336,-0.0336,-0.0359,-0.0359,-0.0359,-0.0345,-0.0344,-0.0344,-0.0335,-0.0336,-0.0336,-0.0336,-0.0285,-0.0283,-0.0281,0,0,0,0,0,0,0,0,0,0,0,0,0,-0.0335,-0.0336,-0.0359,-0.0354,-0.0353,-0.0345,-0.0344,-0.0344,-0.0335,-0.0336,-0.0336,-0.0336,-0.0285,-0.0283,-0.0281,-0.0264,0,0,-0.0274,-0.0273,0,0,0,0,0,0,0,0,-0.0335,-0.0335,-0.0355,-0.0354,-0.0354,-0.0343,-0.0317,-0.0316,-0.0335,-0.0341,-0.0336,-0.0336,-0.0301,-0.0298,-0.0293,-0.0262,-0.0259,-0.0274,-0.0272,-0.0272,-0.0271,0,0,0,0,0,0,0,-0.0335,-0.0336,-0.0351,-0.0355,-0.0354,-0.0338,-0.0338,-0.0317,-0.0318,-0.034,-0.034,-0.0341,-0.0301,-0.0295,-0.0292,-0.0259,-0.0274,-0.0272,-0.0271,-0.027,-0.0209,-0.0209,0,0,0,0,0,0,-0.0342,-0.0336,-0.0352,-0.0351,-0.0346,-0.0339,-0.0339,-0.0345,-0.0319,-0.0316,-0.0341,-0.034,-0.0299,-0.0294,-0.029,-0.027,-0.0272,-0.0269,-0.0268,-0.0209,-0.0209,-0.0208,0,0,0,0,0,0,-0.0342,-0.0344,-0.0353,-0.0344,-0.0344,-0.0339,-0.0346,-0.0345,-0.0348,-0.032,-0.0316,-0.0347,-0.0299,-0.0293,-0.0273,-0.0268,-0.0268,-0.0266,-0.0209,-0.0209,-0.0209,-0.0228,0,0,0,0,0,0,-0.0341,-0.0344,-0.0352,-0.0345,-0.0345,-0.0354,-0.0346,-0.0345,-0.0349,-0.0349,-0.0324,-0.0319,-0.0299,-0.0276,-0.0271,-0.0264,-0.0265,-0.021,-0.0209,-0.0209,-0.0228,-0.0229,-0.0229,0,0,0,0,0,-0.034,-0.0353,-0.0353,-0.0355,-0.0357,-0.0355,-0.0353,-0.0349,-0.0349,-0.0352,-0.0332,-0.032,-0.0269,-0.0274,-0.0268,-0.0261,-0.021,-0.0209,-0.0209,-0.0228,-0.0229,-0.0229,0,0,0,0,0,0,-0.0347,-0.0353,-0.0353,-0.0367,-0.0364,-0.0354,-0.0359,-0.0355,-0.0343,-0.0345,-0.0317,-0.031,-0.029,-0.0273,-0.028,-0.0241,-0.0237,-0.0235,-0.0254,-0.0254,-0.0255,-0.0258,-0.0263,0,0,0,0,0,-0.0353,-0.0365,-0.0363,-0.0374,-0.0376,-0.0369,-0.0369,-0.0367,-0.0356,-0.0351,-0.0331,-0.0307,-0.028,-0.0268,-0.0245,-0.0224,-0.0201,-0.0215,-0.0216,-0.0216,-0.0214,-0.0167,-0.0163,-0.0206,-0.0206,-0.0206,0,0,-0.0359,-0.0364,-0.037,-0.0376,-0.0375,-0.0377,-0.037,-0.0376,-0.0372,-0.0346,-0.0333,-0.031,-0.0276,-0.0252,-0.0241,-0.0238,-0.0194,-0.0215,-0.0216,-0.0213,-0.0166,-0.0161,-0.0158,-0.0206,-0.0206,-0.0206,0,0,-0.0374,-0.0382,-0.0395,-0.0396,-0.04,-0.0393,-0.0398,-0.0391,-0.0384,-0.037,-0.0345,-0.0317,-0.0287,-0.0253,-0.0233,-0.0222,-0.02,-0.0221,-0.0222,-0.0177,-0.0173,-0.0169,-0.0145,-0.0138,-0.0219,-0.0219,-0.0219,0,-0.038,-0.0398,-0.0397,-0.0408,-0.041,-0.0402,-0.0411,-0.0398,-0.0384,-0.037,-0.0371,-0.031,-0.0283,-0.0237,-0.0233,-0.0222,-0.0203,-0.0224,-0.0178,-0.0173,-0.0169,-0.0144,-0.0137,-0.022,-0.022,-0.022,-0.022,0,-0.0402,-0.0416,-0.0425,-0.0433,-0.0433,-0.0442,-0.0427,-0.042,-0.041,-0.0391,-0.0355,-0.0315,-0.0276,-0.0262,-0.0244,-0.0199,-0.0198,-0.0186,-0.0178,-0.0166,-0.0141,-0.0133,-0.0221,-0.0221,-0.0221,-0.022,0,0,-0.0414,-0.0436,-0.044,-0.0449,-0.045,-0.0452,-0.0441,-0.0422,-0.0411,-0.0385,-0.036,-0.0308,-0.0287,-0.0263,-0.0232,-0.0192,-0.0146,-0.018,-0.0178,-0.0159,-0.0062,-0.0075,-0.0068,-0.0128,-0.0127,-0.0125,-0.0061,0,-0.0431,-0.046,-0.0461,-0.0478,-0.049,-0.0475,-0.0464,-0.0444,-0.042,-0.039,-0.034,-0.0308,-0.0286,-0.027,-0.0223,-0.0166,-0.0125,-0.0166,-0.0073,-0.0071,-0.0085,-0.0058,-0.0121,-0.0055,-0.0053,-0.0051,-0.005,0,-0.045,-0.0467,-0.0495,-0.0502,-0.0505,-0.0511,-0.0492,-0.0479,-0.043,-0.041,-0.0365,-0.0328,-0.0263,-0.025,-0.0142,-0.0173,-0.0119,-0.0075,-0.0071,-0.0069,-0.0068,-0.0065,-0.0036,-0.0037,-0.0038,-0.0039,-0.004,0,-0.0463,-0.0487,-0.0511,-0.0517,-0.0523,-0.0527,-0.0524,-0.0489,-0.0474,-0.0423,-0.0405,-0.0327,-0.029,-0.0209,-0.0124,-0.013,-0.001,-0.0005,0.0036,0.0035,0.0034,0.003,0.0079,0.0079,0.0078,0.0078,0.0078,0,-0.0477,-0.0496,-0.0525,-0.0539,-0.0561,-0.0553,-0.0557,-0.0538,-0.0503,-0.048,-0.0421,-0.0383,-0.0277,-0.0199,-0.0122,-0.0023,-0.0005,0.0042,0.0058,0.0022,0.0016,0.0039,0.0034,0.0081,0.008,0.008,0.0079,0,-0.0487,-0.0507,-0.0538,-0.0562,-0.0572,-0.0589,-0.0595,-0.0588,-0.0555,-0.0523,-0.0509,-0.0417,-0.0316,-0.0214,-0.0078,-0.0025,0.0073,0.0104,0.0047,0.0057,0.0084,0.0077,0.0157,0.0157,0.0157,0.0157,0.0158,0,-0.0492,-0.0513,-0.0562,-0.0589,-0.0608,-0.063,-0.0642,-0.0621,-0.0607,-0.054,-0.0521,-0.0424,-0.0355,-0.0172,-0.0071,0.0072,0.0092,0.0132,0.0122,0.0089,0.0096,0.0089,0.0081,0.0158,0.0158,0.0158,0.0158,0,-0.0502,-0.0528,-0.0557,-0.0615,-0.0649,-0.0671,-0.0684,-0.0675,-0.0635,-0.0608,-0.0513,-0.0414,-0.03,-0.0167,-0.0059,0.0044,0.01,0.0135,0.0135,0.0126,0.0091,0.0096,0.0089,0.0159,0.0159,0.0159,0.0159,0,-0.051,-0.0539,-0.0587,-0.0632,-0.0678,-0.0698,-0.0701,-0.0672,-0.0649,-0.0568,-0.0537,-0.0408,-0.033,-0.018,-0.0079,0.0017,0.0041,0.0065,0.007,0.007,0.0022,-0.0037,0.0014,0,0,0,0,0,-0.0512,-0.0548,-0.0596,-0.0648,-0.0692,-0.0713,-0.0719,-0.0709,-0.0672,-0.0605,-0.0565,-0.0453,-0.0285,-0.0209,-0.0113,-0.009,0.004,0.0022,0.0066,0.0163,0.0162,0.0119,0,0,0,0,0,0,-0.0517,-0.0568,-0.0595,-0.0648,-0.0682,-0.072,-0.0724,-0.07,-0.0649,-0.0599,-0.0504,-0.0442,-0.0278,-0.0339,-0.0114,-0.0085,-0.0047,0.0105,0.0107,0.0163,0.0162,0.0162,0.0117,0,0,0,0,0]}]]